Date_and_time,latitude,longitude,wind_speed,RelWindDirFrom,WindDirFrom,air_pressure,air_temperature,relative_humidity,Temp,platform_speed_wrt_ground,air_pressure_at_mean_sea_level,platform_orientation
2018-05-23 00:00,50.63046,-96.9807616666667,4.3,7.5,105,986.32,16.7,73,9.61,0.0,1012.53,3.2
2018-05-23 00:10,50.6304533333333,-96.9807666666667,2.8,6.5,138,986.38,16.9,71,9.63,0.0,1012.58,3.2
2018-05-23 00:20,50.6304516666667,-96.98077,3.6,6.7,150,986.42,17.1,67,9.68,0.0,1012.59,3.2
2018-05-23 00:30,50.6304133333333,-96.9807666666667,3.3,5.3,143,986.38,17.3,66,9.59,0.0,1012.57,3.2
2018-05-23 00:40,50.6304533333333,-96.980795,3.1,7.2,150,986.45,17.0,68,9.51,0.0,1012.68,3.2
2018-05-23 00:50,50.6304416666667,-96.9807733333333,3.3,5.4,145,986.48,16.8,66,9.44,0.0,1012.78,3.2
2018-05-23 01:00,50.6304333333333,-96.9807716666667,4.7,7.0,147,986.49,17.2,61,9.37,0.0,1012.73,228.3
2018-05-23 01:10,50.6304333333333,-96.98077,3.5,5.9,158,986.54,17.4,58,9.32,0.0,1012.72,228.3
2018-05-23 01:20,50.6304316666667,-96.98077,4.9,6.7,168,986.56,18.1,57,9.26,0.0,1012.68,228.3
2018-05-23 01:30,50.6304416666667,-96.9807616666667,5.0,6.0,163,986.60,19.2,59,9.24,0.0,1012.65,228.3
2018-05-23 01:40,50.63045,-96.980795,6.3,7.3,166,986.62,19.5,53,9.27,0.0,1012.69,228.3
2018-05-23 01:50,50.6304433333333,-96.9807783333333,4.8,5.7,178,986.69,19.9,49,9.31,0.0,1012.75,228.3
2018-05-23 02:00,50.6304433333333,-96.9807783333333,4.5,6.2,169,986.77,19.7,48,9.32,0.0,1012.84,299.2
2018-05-23 02:10,50.63042,-96.9807783333333,5.2,6.6,165,986.87,18.6,57,9.38,0.0,1012.98,299.2
2018-05-23 02:20,50.63042,-96.9807783333333,5.5,6.2,172,986.99,18.4,62,9.45,0.0,1013.10,299.2
2018-05-23 02:30,50.6304233333333,-96.9807766666667,5.5,6.0,177,987.10,19.0,63,9.48,0.0,1013.19,299.2
2018-05-23 02:40,50.6304183333333,-96.9807633333333,4.5,5.4,184,987.22,19.5,55,9.48,0.0,1013.31,299.2
2018-05-23 02:50,50.630425,-96.9807666666667,4.0,5.0,180,987.32,20.0,48,9.48,0.0,1013.37,299.2
2018-05-23 03:00,50.6304266666667,-96.9807716666667,4.6,5.5,179,987.44,20.1,50,9.47,0.0,1013.48,360.0
2018-05-23 03:10,50.6304283333333,-96.9807683333333,4.9,5.8,183,987.52,20.4,46,9.43,0.0,1013.52,360.0
2018-05-23 03:20,50.63043,-96.98077,5.0,5.4,179,987.61,20.1,51,9.37,0.0,1013.58,360.0
2018-05-23 03:30,50.6304316666667,-96.98077,5.0,5.4,183,987.68,20.0,52,9.32,0.0,1013.64,360.0
2018-05-23 03:40,50.6304316666667,-96.98077,4.6,5.2,180,987.75,20.0,49,9.26,0.0,1013.69,360.0
2018-05-23 03:50,50.6304316666667,-96.98077,5.6,6.2,189,987.75,20.1,47,9.21,0.0,1013.70,360.0
2018-05-23 04:00,50.6304366666667,-96.980765,6.5,7.9,196,987.76,20.7,44,9.17,0.0,1013.73,48.3
2018-05-23 04:10,50.6304333333333,-96.980755,5.9,7.0,198,987.78,21.0,43,9.13,0.0,1013.75,48.3
2018-05-23 04:20,50.630435,-96.9807516666667,5.4,6.9,199,987.81,21.1,43,9.04,0.0,1013.75,48.3
2018-05-23 04:30,50.630435,-96.980755,5.1,6.1,197,987.88,20.9,43,8.95,0.0,1013.80,48.3
2018-05-23 04:40,50.6304316666667,-96.9807583333333,4.9,5.7,196,987.93,21.0,42,8.88,0.0,1013.83,48.3
2018-05-23 04:50,50.63043,-96.98076,4.3,4.8,191,987.95,20.6,43,8.78,0.0,1013.87,48.3
2018-05-23 05:00,50.6304283333333,-96.9807583333333,4.6,5.1,199,987.98,20.1,44,8.76,0.0,1013.90,131.6
2018-05-23 05:10,50.6304283333333,-96.98076,4.8,6.1,201,988.06,20.1,44,8.80,0.0,1014.00,131.6
2018-05-23 05:20,50.6304266666667,-96.98076,6.1,7.3,205,988.12,20.1,45,8.84,0.0,1014.07,131.6
2018-05-23 05:30,50.6304266666667,-96.98076,7.0,8.7,206,988.13,20.0,46,8.86,0.0,1014.07,131.6
2018-05-23 05:40,50.6304266666667,-96.98076,7.1,9.9,207,988.12,20.0,47,8.89,0.0,1014.06,131.6
2018-05-23 05:50,50.630425,-96.9807383333333,7.8,10.4,207,988.11,20.2,48,8.89,0.0,1014.02,131.6
2018-05-23 06:00,50.630425,-96.98075,8.0,11.0,203,988.07,20.2,49,8.89,0.0,1013.96,90.0
2018-05-23 06:10,50.6304266666667,-96.98076,7.4,10.4,204,988.13,20.0,50,8.91,0.0,1014.02,90.0
2018-05-23 06:20,50.6304283333333,-96.9807566666667,7.4,9.7,204,988.20,19.9,50,9.04,0.0,1014.12,90.0
2018-05-23 06:30,50.63043,-96.9807566666667,5.9,8.3,205,988.25,19.5,52,9.21,0.0,1014.18,90.0
2018-05-23 06:40,50.63043,-96.9807583333333,4.7,6.3,214,988.33,19.2,53,9.32,0.0,1014.29,90.0
2018-05-23 06:50,50.63043,-96.9807583333333,5.0,7.0,217,988.42,18.9,54,9.38,0.0,1014.41,90.0
2018-05-23 07:00,50.6304316666667,-96.9807583333333,5.3,6.9,204,988.48,18.6,55,9.39,0.0,1014.49,131.7
2018-05-23 07:10,50.6304,-96.9807783333333,4.9,6.5,191,988.50,18.1,56,9.39,0.0,1014.54,131.7
2018-05-23 07:20,50.6304183333333,-96.980765,5.2,6.1,191,988.49,17.6,58,9.34,0.0,1014.56,131.7
2018-05-23 07:30,50.6304233333333,-96.9807683333333,5.1,5.7,188,988.57,17.2,59,9.31,0.0,1014.65,131.7
2018-05-23 07:40,50.630445,-96.9807533333333,4.2,5.0,199,988.64,17.1,59,9.31,0.0,1014.73,131.7
2018-05-23 07:50,50.63044,-96.980755,3.5,4.4,202,988.71,17.0,60,9.27,0.0,1014.80,131.7
2018-05-23 08:00,50.6304383333333,-96.9807566666667,3.7,4.6,216,988.72,17.0,61,9.19,0.0,1014.82,360.0
2018-05-23 08:10,50.6304366666667,-96.98076,4.7,6.2,217,988.78,17.1,61,9.09,0.0,1014.88,360.0
2018-05-23 08:20,50.6304633333333,-96.9807583333333,4.8,5.9,215,988.84,17.0,61,8.98,0.0,1014.96,360.0
2018-05-23 08:30,50.6304466666667,-96.980755,4.4,5.2,217,988.88,16.8,62,8.88,0.0,1015.03,360.0
2018-05-23 08:40,50.630445,-96.980755,4.5,5.3,216,988.95,16.7,63,8.71,0.0,1015.12,360.0
2018-05-23 08:50,50.630445,-96.9807583333333,4.1,5.1,218,988.95,16.8,64,8.60,0.0,1015.12,360.0
2018-05-23 09:00,50.630445,-96.9807566666667,3.3,4.4,215,988.94,16.9,64,8.55,0.0,1015.14,320.5
2018-05-23 09:10,50.630445,-96.9807566666667,2.4,3.5,216,988.96,16.7,65,8.52,0.0,1015.19,320.5
2018-05-23 09:20,50.6304116666667,-96.980775,1.2,2.4,202,989.00,16.5,66,8.52,0.0,1015.26,320.5
2018-05-23 09:30,50.6304666666667,-96.9807316666667,2.0,3.2,149,988.99,15.4,74,8.53,0.0,1015.31,320.5
2018-05-23 09:40,50.630445,-96.98075,2.5,3.3,152,989.02,14.3,84,8.58,0.0,1015.39,320.5
2018-05-23 09:50,50.6304433333333,-96.980745,1.6,3.2,136,989.04,13.8,88,8.60,0.0,1015.43,320.5
2018-05-23 10:00,50.6304416666667,-96.9807483333333,4.0,5.6,131,989.11,12.7,97,8.72,0.0,1015.55,41.3
2018-05-23 10:10,50.6304433333333,-96.9807483333333,4.8,6.0,131,989.12,12.4,100,8.79,0.0,1015.57,41.3
2018-05-23 10:20,50.6304433333333,-96.98075,4.0,6.2,146,989.12,12.7,99,8.75,0.0,1015.57,41.3
2018-05-23 10:30,50.6304433333333,-96.9807516666667,3.2,4.6,176,989.23,12.2,99,8.70,0.0,1015.71,41.3
2018-05-23 10:40,50.6304433333333,-96.9807533333333,3.4,4.0,185,989.22,12.7,100,8.73,0.0,1015.68,41.3
2018-05-23 10:50,50.6304433333333,-96.980755,3.2,3.9,182,989.23,13.1,100,8.71,0.0,1015.66,41.3
2018-05-23 11:00,50.6304233333333,-96.9807566666667,2.4,3.1,172,989.22,13.1,100,8.73,0.0,1015.66,161.1
2018-05-23 11:10,50.6304333333333,-96.980755,1.9,2.9,173,989.30,13.2,100,8.73,0.0,1015.75,161.1
2018-05-23 11:20,50.6304333333333,-96.98076,2.2,3.0,189,989.39,13.3,100,8.68,0.0,1015.89,161.1
2018-05-23 11:30,50.6304233333333,-96.9807483333333,2.9,3.3,179,989.49,13.6,99,8.59,0.0,1016.03,161.1
2018-05-23 11:40,50.63043,-96.9807533333333,2.4,3.2,178,989.51,13.5,99,8.62,0.0,1016.08,161.1
2018-05-23 11:50,50.6304383333333,-96.9807583333333,2.5,2.9,175,989.70,13.5,99,9.02,0.0,1016.32,161.1
2018-05-23 12:00,50.6304466666667,-96.9807666666667,2.9,3.5,175,989.93,13.7,99,9.25,0.0,1016.56,347.4
2018-05-23 12:10,50.6304433333333,-96.9807683333333,2.9,3.6,170,990.07,14.0,99,9.22,0.0,1016.68,347.4
2018-05-23 12:20,50.6304533333333,-96.9807733333333,3.7,5.4,155,990.06,14.3,100,8.99,0.0,1016.68,347.4
2018-05-23 12:30,50.6304333333333,-96.9807716666667,6.2,7.6,158,990.13,14.7,100,8.84,0.0,1016.71,347.4
2018-05-23 12:40,50.630435,-96.980765,7.0,8.2,159,990.23,14.5,100,8.82,0.0,1016.80,347.4
2018-05-23 12:50,50.6304366666667,-96.9807666666667,7.6,8.5,167,990.32,14.6,100,8.78,0.0,1016.89,347.4
2018-05-23 13:00,50.6304416666667,-96.9807683333333,7.3,8.6,163,990.35,15.0,100,8.77,0.0,1016.89,270.0
2018-05-23 13:10,50.6304416666667,-96.9807666666667,7.6,9.1,161,990.42,15.1,100,8.80,0.0,1016.96,270.0
2018-05-23 13:20,50.6304433333333,-96.980765,9.3,10.9,157,990.44,15.0,100,8.83,0.0,1016.97,270.0
2018-05-23 13:30,50.6304433333333,-96.980765,7.0,8.4,156,990.48,14.6,100,8.90,0.0,1017.03,270.0
2018-05-23 13:40,50.6304433333333,-96.9807633333333,4.3,7.5,145,990.40,14.1,100,8.92,0.0,1016.98,270.0
2018-05-23 13:50,50.6304416666667,-96.9807616666667,5.8,7.0,149,990.41,14.0,100,8.90,0.0,1016.98,270.0
2018-05-23 14:00,50.6304416666667,-96.9807633333333,5.9,6.8,146,990.43,14.0,100,8.82,0.0,1016.98,320.5
2018-05-23 14:10,50.6304416666667,-96.9807616666667,6.1,7.1,147,990.40,14.1,100,8.70,0.0,1016.94,320.5
2018-05-23 14:20,50.6304216666667,-96.9807783333333,6.3,7.3,143,990.29,14.3,100,8.71,0.0,1016.79,320.5
2018-05-23 14:30,50.6304466666667,-96.9807583333333,7.8,8.8,150,990.13,14.7,99,8.66,0.0,1016.62,320.5
2018-05-23 14:40,50.6304433333333,-96.9807533333333,5.4,7.3,143,990.04,14.5,99,8.61,0.0,1016.54,320.5
2018-05-23 14:50,50.6304433333333,-96.98075,3.6,4.8,127,989.95,14.2,100,8.57,0.0,1016.43,320.5
2018-05-23 15:00,50.6304416666667,-96.98075,3.5,5.0,133,989.90,14.5,100,8.47,0.0,1016.36,125.3
2018-05-23 15:10,50.6304416666667,-96.98075,4.9,6.7,138,989.91,14.6,100,8.34,0.0,1016.38,125.3
2018-05-23 15:20,50.6304433333333,-96.98075,5.9,6.9,145,989.89,14.3,100,8.21,0.0,1016.40,125.3
2018-05-23 15:30,50.6304433333333,-96.98075,6.6,8.0,149,989.88,15.0,96,8.24,0.0,1016.38,125.3
2018-05-23 15:40,50.6304433333333,-96.98075,5.4,7.5,133,989.85,15.5,98,8.40,0.0,1016.32,125.3
2018-05-23 15:50,50.6304433333333,-96.980785,6.2,7.7,121,989.74,15.7,97,8.54,0.0,1016.20,125.3
2018-05-23 16:00,50.6304416666667,-96.980765,5.0,7.5,126,989.84,15.6,97,8.66,0.0,1016.29,0.0
2018-05-23 16:10,50.6304366666667,-96.980755,6.8,7.9,113,989.81,16.0,94,8.77,0.0,1016.24,0.0
2018-05-23 16:20,50.6304116666667,-96.98076,6.7,8.0,108,989.79,16.4,91,8.82,0.0,1016.19,0.0
2018-05-23 16:30,50.630435,-96.980755,7.0,8.9,110,989.73,16.3,91,8.86,0.0,1016.14,0.0
2018-05-23 16:40,50.6304333333333,-96.9807533333333,9.5,10.0,113,989.68,16.4,93,8.89,0.0,1016.09,0.0
2018-05-23 16:50,50.6304366666667,-96.9807533333333,9.6,10.4,102,989.55,16.6,89,8.94,0.0,1015.94,0.0
2018-05-23 17:00,50.6304383333333,-96.9807533333333,9.9,10.3,104,989.59,17.0,85,8.99,0.0,1015.95,90.0
2018-05-23 17:10,50.63044,-96.98075,10.0,10.6,102,989.54,17.7,80,9.05,0.0,1015.89,90.0
2018-05-23 17:20,50.63044,-96.9807516666667,9.4,10.4,98,989.51,17.9,79,9.27,0.0,1015.82,90.0
2018-05-23 17:30,50.6304383333333,-96.98075,7.8,9.1,95,989.50,18.0,78,9.63,0.0,1015.78,90.0
2018-05-23 17:40,50.630435,-96.9807516666667,7.1,7.8,90,989.45,17.9,79,9.99,0.0,1015.72,90.0
2018-05-23 17:50,50.6304383333333,-96.9807583333333,7.1,7.9,91,989.38,18.3,77,9.70,0.0,1015.64,90.0
2018-05-23 18:00,50.6304366666667,-96.98076,7.9,8.8,95,989.35,18.6,74,9.74,0.0,1015.58,228.3
2018-05-23 18:10,50.630435,-96.9807616666667,10.1,11.7,100,989.33,18.9,72,9.74,0.0,1015.53,228.3
2018-05-23 18:20,50.630435,-96.9807616666667,10.7,11.7,101,989.23,19.7,66,9.66,0.0,1015.38,228.3
2018-05-23 18:30,50.630435,-96.98076,10.6,11.3,101,989.13,20.0,64,9.61,0.0,1015.27,228.3
2018-05-23 18:40,50.6304366666667,-96.9807683333333,9.9,11.4,100,989.09,20.5,62,9.41,0.0,1015.20,228.3
2018-05-23 18:50,50.630435,-96.9807633333333,11.7,12.3,104,989.07,20.2,64,9.25,0.0,1015.16,228.3
2018-05-23 19:00,50.630435,-96.9807466666667,11.1,12.3,102,988.99,20.2,62,9.18,0.0,1015.06,111.5
2018-05-23 19:10,50.6304383333333,-96.980755,9.1,11.9,96,989.01,20.4,62,9.66,0.0,1015.06,111.5
2018-05-23 19:20,50.6304333333333,-96.980755,8.7,9.5,93,988.95,20.3,62,9.75,0.0,1015.00,111.5
2018-05-23 19:30,50.6304333333333,-96.980755,8.7,9.6,92,988.87,20.4,63,9.43,0.0,1014.92,111.5
2018-05-23 19:40,50.6304333333333,-96.980755,9.0,9.6,93,988.73,19.9,65,9.64,0.0,1014.78,111.5
2018-05-23 19:50,50.6304366666667,-96.9807583333333,9.5,11.0,89,988.57,19.9,64,9.87,0.0,1014.59,111.5
2018-05-23 20:00,50.6304383333333,-96.9807566666667,11.4,12.5,85,988.45,20.0,63,9.65,0.0,1014.46,270.0
2018-05-23 20:10,50.63044,-96.9807566666667,10.2,11.9,87,988.42,20.2,62,10.18,0.0,1014.38,270.0
2018-05-23 20:20,50.6304416666667,-96.9807566666667,8.8,9.7,90,988.37,20.4,62,10.01,0.0,1014.31,270.0
2018-05-23 20:30,50.6304483333333,-96.9807483333333,8.8,9.7,90,988.29,20.5,61,10.04,0.0,1014.19,270.0
2018-05-23 20:40,50.6304466666667,-96.9807516666667,8.8,9.3,92,988.20,20.8,59,10.12,0.0,1014.10,270.0
2018-05-23 20:50,50.63045,-96.98075,8.8,9.3,92,988.08,21.1,57,9.93,0.0,1013.97,270.0
2018-05-23 21:00,50.63045,-96.9807533333333,8.8,9.3,91,988.00,21.1,58,9.70,0.0,1013.87,360.0
2018-05-23 21:10,50.63045,-96.9807516666667,9.5,10.7,95,987.90,21.3,56,9.73,0.0,1013.77,360.0
2018-05-23 21:20,50.63045,-96.98078,10.1,11.0,96,987.81,21.2,57,9.88,0.0,1013.68,360.0
2018-05-23 21:30,50.6304416666667,-96.9807616666667,9.3,10.3,95,987.69,21.3,56,10.09,0.0,1013.58,360.0
2018-05-23 21:40,50.6304433333333,-96.9807566666667,10.1,10.9,97,987.67,21.4,54,10.23,0.0,1013.54,360.0
2018-05-23 21:50,50.6304433333333,-96.9807566666667,10.1,10.6,97,987.62,21.5,54,10.38,0.0,1013.49,360.0
2018-05-23 22:00,50.6304416666667,-96.9807566666667,10.2,10.9,98,987.56,22.1,50,10.33,0.0,1013.39,299.2
2018-05-23 22:10,50.63044,-96.9807533333333,10.3,10.8,98,987.49,22.0,53,10.21,0.0,1013.32,299.2
2018-05-23 22:20,50.6304416666667,-96.9807533333333,9.0,10.4,97,987.43,22.5,48,10.23,0.0,1013.22,299.2
2018-05-23 22:30,50.6304466666667,-96.9807316666667,9.1,11.3,88,987.33,22.2,57,10.39,0.0,1013.12,299.2
2018-05-23 22:40,50.63048,-96.98083,8.9,10.6,86,987.25,20.7,69,10.44,0.0,1013.09,299.2
2018-05-23 22:50,50.6304416666667,-96.9807666666667,7.0,7.5,90,987.26,21.3,60,10.46,0.0,1013.07,299.2
2018-05-23 23:00,50.6304466666667,-96.9807633333333,7.4,8.3,92,987.23,22.0,56,10.48,0.0,1013.01,311.7
2018-05-23 23:10,50.6304483333333,-96.98076,7.6,8.5,93,987.17,22.4,50,10.87,0.0,1012.93,311.7
2018-05-23 23:20,50.6304483333333,-96.98076,9.3,12.0,84,987.07,22.5,56,11.17,0.0,1012.82,311.7
2018-05-23 23:30,50.6304483333333,-96.98076,11.1,11.6,82,987.01,20.5,75,11.10,0.0,1012.84,311.7
2018-05-23 23:40,50.630445,-96.980745,10.5,11.5,82,986.92,20.0,74,10.78,0.0,1012.77,311.7
